Flag for Germany Weather past 2 weeks in Cuxhaven, Lower Saxony, Germany

Now
52 °F

Broken clouds.


Feels Like: 47 °F
Forecast: 45 / 61 °F
Wind: 13 mph from North

Location: Nordholz

Current Time: May 23, 2015 at 6:37:57 PM

Latest Report: May 23, 2015 at 5:20 PM


Visibility: N/A

Pressure: 30.18 "Hg

Humidity: 62%

Dew point: 39 °F

Location of CuxhavenLocation

Historic Weather in Cuxhaven — Graph

°F

Cuxhaven temperature yesterday

Maximum temperature yesterday: 66 °F (at 3:20 PM)
Minimum temperature yesterday: 45 °F (at 3:20 AM)
Average temperature yesterday: 55 °F

Past Weeks' High & Low Weather Summary

 TemperatureHumidityPressure
High75 °F (May 11, 5:20 PM)94% (May 9, 7:20 AM)30.33 "Hg (May 9, 7:20 AM)
Low43 °F (May 20, 1:20 AM)36% (May 10, 6:20 PM)29.53 "Hg (May 18, 11:58 PM)
Average52 °F75%30.02 "Hg
* Reported May 8 5:20 PM — May 23 5:20 PM, Cuxhaven, Weather by CustomWeather, © 2015

Note: Actual official high and low records may vary slightly from our data, if they occured in-between our weather recording intervals... More about our weather records

Advertising

Cuxhaven weather history for previous 24 hours

 ConditionsComfort  
Time TempWeatherWind HumidityBarometerVisibility
5:20 PM
Sat, May 23
52 °FBroken clouds.13 mph62%30.18 "HgN/A
4:20 PM54 °FBroken clouds.15 mph63%30.18 "HgN/A
3:20 PM54 °FPartly sunny.15 mph63%30.18 "HgN/A
2:20 PM54 °FBroken clouds.13 mph63%30.18 "HgN/A
1:20 PM54 °FBroken clouds.14 mph67%30.18 "HgN/A
12:20 PM54 °FBroken clouds.13 mph67%30.18 "HgN/A
11:20 AM52 °FBroken clouds.12 mph72%30.18 "HgN/A
10:20 AM50 °FBroken clouds.10 mph88%30.18 "HgN/A
9:20 AM50 °FLight rain. Fog.12 mph88%30.18 "Hg3 mi
8:56 AM50 °FDrizzle. Broken clouds.10 mph94%30.18 "Hg4 mi
8:20 AM50 °FDrizzle. Fog.10 mph94%30.15 "Hg2 mi
7:55 AM50 °FDrizzle. Fog.12 mph94%30.15 "Hg2 mi
7:20 AM50 °FDrizzle. Fog.9 mph94%30.15 "Hg2 mi
6:50 AM52 °FDrizzle. Fog.9 mph94%30.12 "Hg3 mi
6:20 AM52 °FDrizzle. Fog.10 mph94%30.12 "Hg3 mi
5:20 AM52 °FDrizzle. Fog.8 mph94%30.12 "Hg2 mi
4:57 AM52 °FFog.6 mph94%30.12 "Hg2 mi
4:20 AM52 °FPartly cloudy.8 mph94%30.12 "Hg5 mi
3:20 AM54 °FPassing clouds.13 mph77%30.15 "HgN/A
2:20 AM55 °FPassing clouds.9 mph77%30.15 "HgN/A
1:20 AM55 °FPassing clouds.8 mph72%30.15 "HgN/A
12:20 AM55 °FPassing clouds.7 mph77%30.18 "HgN/A
11:20 PM
Fri, May 22
55 °FPassing clouds.6 mph77%30.18 "HgN/A
10:20 PM55 °FPartly sunny.7 mph77%30.18 "HgN/A
9:20 PM55 °FPartly sunny.13 mph77%30.18 "HgN/A
8:20 PM57 °FPartly sunny.8 mph67%30.18 "HgN/A
7:20 PM57 °FScattered clouds.12 mph63%30.18 "HgN/A
6:20 PM59 °FPassing clouds.10 mph63%30.18 "HgN/A
Weather by CustomWeather, © 2015

See weather overviewHow to use our weather pages